Content
SEND FEEDBACK

Daily
Averages
Monthly
Summary
United States of America

HARRISBURG, NEBRASKA


Home > North America > United States > Nebraska
Elevation: 4504 feet     Latitude: 41 39N     Longitude: 103 53W

WEATHER
 
SELECT A DAY
Number of Records: 372,112;   Date Range: 1/1/95 - 7/23/14
 
SHARE

PRINT THIS DATA

[ ← Previous Day ]
WEATHER ALMANAC - FEBRUARY 13, 2013
[ Next Day → ]
[ °C ]   °F
Weather ElementAverageHighLow
Temperature35.1 °F51.1 °F (12:53 pm)16 °F (2:53 am)
Dewpoint19.2 °F30.9 °F (6:53 pm) (7:00 pm)
Humidity59.5 %81 % (3:53 am)33 % (11:53 am)
Barometer29.98 in30.04 in (8:53 pm)29.88 in (1:53 pm)
Wind Speed14.2 mph29.9 mph (2:53 pm)
Wind Gust41.4 mph (2:53 pm)
Weather ElementAverage
Visibility10 mi
Wind DirectionW (267.4 °)

Weather ElementTotal
Precipitation---
Heating Degree Days31.5 (Base 65)
Averaged from 23 records on February 13, 2013
WEATHER CONDITIONS BREAKOUT
WIND DIRECTION BREAKOUT
WEATHER BY HOUR - FEBRUARY 13, 2013
[ °C ]   °F
Local TimeTemperatureDewpointHumidityBarometerVisibilityWind DirectionWind SpeedGust SpeedPrecipitationEventsConditions
1:53 AM24.1 °F15.1 °F69 %30.02 in10.0 miWNW (300°)9.2 mphClear
2:53 AM16.0 °F10.0 °F77 %30.02 in10.0 miCalmClear
3:53 AM18.0 °F12.9 °F81 %29.99 in10.0 miCalmClear
4:53 AM18.0 °F12.0 °F78 %30.00 in10.0 miNNW (340°)3.5 mphClear
5:53 AM19.0 °F14.0 °F81 %30.01 in10.0 miWNW (290°)5.8 mphClear
6:53 AM21.2 °F14.0 °F74 %29.90 in10.0 miNNW (330°)5.8 mphClear
7:53 AM27.0 °F18.0 °F69 %30.00 in10.0 miWNW (290°)9.2 mphClear
8:53 AM36.0 °F21.0 °F55 %29.98 in10.0 miWNW (290°)15.0 mph21.9 mphClear
9:53 AM44.1 °F19.9 °F38 %29.97 in10.0 miWNW (290°)27.6 mph36.8 mphPartly Cloudy
10:53 AM44.1 °F19.9 °F38 %29.96 in10.0 miWNW (290°)25.3 mph35.7 mphScattered Clouds
11:53 AM48.9 °F21.0 °F33 %29.92 in10.0 miWNW (300°)23.0 mph29.9 mphScattered Clouds
12:53 PM51.1 °F0.0 °F29.89 in10.0 miWest (280°)21.9 mph32.2 mphClear
1:53 PM48.9 °F21.0 °F33 %29.88 in10.0 miWest (280°)27.6 mph39.1 mphClear
2:53 PM48.0 °F21.0 °F34 %29.90 in10.0 miWest (270°)29.9 mph41.4 mphClear
3:53 PM46.9 °F21.0 °F36 %29.92 in10.0 miWest (280°)23.0 mph35.7 mphMostly Cloudy
4:53 PM43.0 °F21.0 °F42 %29.94 in10.0 miWest (280°)20.7 mph31.1 mphClear
5:53 PM41.0 °F21.0 °F45 %29.96 in10.0 miWNW (290°)15.0 mphScattered Clouds
6:53 PM37.9 °F30.9 °F76 %30.02 in10.0 miNNW (330°)17.3 mph28.8 mph0.00 inOvercast
7:53 PM35.1 °F27.0 °F72 %30.03 in10.0 miNW (310°)8.1 mphOvercast
8:53 PM34.0 °F27.0 °F75 %30.04 in10.0 miWest (260°)6.9 mphOvercast
9:53 PM34.0 °F27.0 °F75 %30.03 in10.0 miWest (280°)9.2 mphOvercast
10:53 PM36.0 °F23.0 °F59 %30.03 in10.0 miWNW (290°)11.5 mphOvercast
11:53 PM34.0 °F25.0 °F70 %30.02 in10.0 miWest (280°)11.5 mph0.00 inOvercast
Hourly data recorded from KBFF, located miles away from Harrisburg, Nebraska







STORIES FROM OUR PARTNERS